TimeAKDT,TemperatureF,Dew PointF,Humidity,Sea Level PressureIn,VisibilityMPH,Wind Direction,Wind SpeedMPH,Gust SpeedMPH,PrecipitationIn,Events,Conditions,WindDirDegrees,DateUTC
12:54 AM,52.0,41.0,66,29.93,10.0,South,3.5,-,N/A,,Scattered Clouds,170,2013-06-13 08:54:00
1:54 AM,48.9,41.0,74,29.94,10.0,South,5.8,-,N/A,,Scattered Clouds,170,2013-06-13 09:54:00
2:54 AM,44.1,37.9,79,29.94,10.0,SSE,3.5,-,N/A,,Scattered Clouds,150,2013-06-13 10:54:00
3:54 AM,37.0,35.1,93,29.96,10.0,Calm,Calm,-,N/A,,Scattered Clouds,0,2013-06-13 11:54:00
4:54 AM,37.0,35.1,93,29.97,10.0,Calm,Calm,-,N/A,,Scattered Clouds,0,2013-06-13 12:54:00
5:54 AM,35.1,35.1,100,29.97,10.0,Calm,Calm,-,N/A,,Clear,0,2013-06-13 13:54:00
6:54 AM,39.0,37.0,93,29.99,10.0,Calm,Calm,-,N/A,,Scattered Clouds,0,2013-06-13 14:54:00
7:54 AM,46.9,42.1,83,30.00,10.0,Calm,Calm,-,N/A,,Scattered Clouds,0,2013-06-13 15:54:00
8:54 AM,51.1,44.1,77,30.02,10.0,South,3.5,-,N/A,,Scattered Clouds,180,2013-06-13 16:54:00
9:54 AM,57.9,45.0,62,30.02,10.0,Variable,3.5,-,N/A,,Clear,0,2013-06-13 17:54:00
10:54 AM,63.0,45.0,52,30.02,10.0,West,4.6,-,N/A,,Clear,260,2013-06-13 18:54:00
11:54 AM,64.9,41.0,42,30.02,10.0,Calm,Calm,-,N/A,,Clear,0,2013-06-13 19:54:00
12:54 PM,66.9,41.0,39,30.02,10.0,Calm,Calm,-,N/A,,Clear,0,2013-06-13 20:54:00
1:54 PM,71.1,37.9,30,30.03,10.0,South,5.8,-,N/A,,Clear,190,2013-06-13 21:54:00
2:54 PM,71.1,37.9,30,30.03,10.0,Variable,3.5,-,N/A,,Clear,0,2013-06-13 22:54:00
3:54 PM,73.0,46.0,38,30.05,10.0,West,12.7,18.4,N/A,,Clear,280,2013-06-13 23:54:00
4:54 PM,72.0,46.0,40,30.06,10.0,West,12.7,20.7,N/A,,Partly Cloudy,260,2013-06-14 00:54:00
5:54 PM,71.1,46.9,42,30.07,10.0,WNW,9.2,-,N/A,,Partly Cloudy,300,2013-06-14 01:54:00
6:54 PM,70.0,48.0,46,30.08,10.0,WNW,11.5,-,N/A,,Partly Cloudy,300,2013-06-14 02:54:00
7:54 PM,69.1,48.9,49,30.09,10.0,West,11.5,-,N/A,,Partly Cloudy,280,2013-06-14 03:54:00
8:54 PM,66.0,48.0,52,30.10,10.0,WNW,10.4,-,N/A,,Scattered Clouds,300,2013-06-14 04:54:00
9:54 PM,62.1,48.0,60,30.13,10.0,West,11.5,-,N/A,,Scattered Clouds,280,2013-06-14 05:54:00
10:54 PM,57.9,46.9,67,30.15,10.0,WSW,5.8,-,N/A,,Scattered Clouds,250,2013-06-14 06:54:00
11:54 PM,54.0,46.9,77,30.18,10.0,SW,3.5,-,N/A,,Scattered Clouds,230,2013-06-14 07:54:00